{"data":{"norad_id":57152,"epoch":"2026-05-25T04:28:38.263008Z","epoch_age_seconds":49033,"freshness":"FRESH","line1":"1 57152U 23090BD  26145.18655397  .00000297  00000+0  20330-4 0  9995","line2":"2 57152  43.0029 191.2298 0001765 275.7909  84.2741 15.27578477162244","mean_motion":15.27578477,"eccentricity":0.0001765,"inclination_deg":43.0029,"raan_deg":191.2298,"arg_perigee_deg":275.7909,"mean_anomaly_deg":84.2741,"bstar":2.033e-5,"rev_number":16224,"period_min":94.266842697863,"perigee_km":481.84265630248,"apogee_km":484.2646566042,"semimajor_km":6861.1906564533,"source":"CELESTRAK","updated_at":"2026-05-25T13:38:18.250288Z"}}